STARLINK-31875, 59674

Orbit data source: Space-Track

STARLINK-31875, 59674 is a payload satellite owned by SpaceX/Seattle (US) in LEO that was launched on Mon, 06 May 2024 UTC via an FALCON 9 launch vehicle from the Air Force Eastern Test Range (AFETR). Payload-class satellites include a variety of spacecraft equipped with specific instruments for various scientific and technological missions. These include communications satellites like Starlink; space stations such as the ISS; scientific satellites like the Hubble; Earth observation satellites from companies like Planet Labs, Umbra, and HawkEye 360; GPS; miniature CubeSats for education and research; and military/defense satellites.

Loading next visibility...
Identifier
59674, 2024-084W
Orbit
LEO
Country
Flag of USUS
Related business
Manufacturer
SpaceX/Seattle
Mission
Operational Commercial Communications
Bus & Motor
STARLINK V2M, Unknown motor
Mass
730 kg wet, ~700 kg dry
Launch date (UTC)
2024-05-06 (1 year ago)
Launch vehicle
FALCON 9
Launch site
Air Force Eastern Test Range (AFETR)
Object type
Payload
Rocket body
Debris
Shape & HBR
Box + 2 Pan, 17.7 m
Radar Cross Section
33.884 m², Large (>1 m²)

Expand to show TLE details & history
Last TLE update: 5 hours ago

TLE from 5 hours ago
0 STARLINK-31875
1 59674U 24084W   25288.59188456  .00000057  00000-0  11602-4 0  9996
2 59674  43.0018 137.6515 0001617 277.0185  83.0483 15.27574048 82225
Epoch: 2025-10-15T14:12Z
TLE epoch observation values (Epoch: 2025-10-15T14:12:18.825Z)
Latitude
-0.00002°
Longitude
-99.79071°
Altitude
482.708 km
Speed
7.626 km/s
True Right ascension
09h 10m 36s
True Declination
0° 00' 00"
Sunlit
Object was in daylight at epoch
Visualization orbit readout
Latitude
Unknown
Longitude
Unknown
Altitude
Unknown
Speed
Unknown
Apparent Right ascension
Unknown
Apparent Declination
Unknown
Sunlit
N/A
Visualization observer readout
Local Sidereal Time
13:47:01
Azimuth
Unknown
Elevation
Unknown
Doppler factor
Unknown
Orbital elements
Apogee altitude
486.122 km
Perigee altitude
483.902 km
Semi-major axis
6,863.149 km
Eccentricity
0.00016
Inclination
43.0018°
RAAN
137.6515°
Arg. of periapsis
277.0185°
True anomaly
83.06669°
Mean anomaly
83.0483°
Eccentric anomaly
83.0575°
Mean motion
3.81732 °/min
Orbital period
94.31 mins
BSTAR
0.000011602
Loading maneuver chart data...
Computing Atmospheric mass density...
Loading historical data...
Loading historical data...
Loading historical data...
Loading historical data...
Loading historical data...
Loading historical data...
Loading historical data...

Documentation

Showing up to 5 results
|